Regional Weather Roundup
Issued by NWS Grand Forks, ND

Home | Current Version | Previous Version | Text Only | Print | Product List | Glossary On
Versions: 1 2 3 4 5 6 7 8 9 10 11 12 13 14 15 16 17 18 19 20 21 22 23 24 25 26 27 28 29 30 31 32 33 34 35 36 37 38 39 40 41 42 43 44 45 46 47 48 49 50
000
ASUS43 KFGF 231031
RWRFGF
PRAIRIE TO PINES  WEATHER ROUNDUP
NATIONAL WEATHER SERVICE EASTERN NORTH DAKOTA/GRAND FORKS ND
500 AM CDT WED JUL 23 2014

 **SATELLITE DATA USED TO AUGMENT SKY COVER AT AUTOMATED STATIONS**
 *****  WEATHER ACROSS EASTERN NORTH DAKOTA  *****

CITY           SKY/WX    TMP DP  RH WIND       PRES   REMARKS
GRAND FORKS    CLEAR     58  56  93 N3        30.28R
GRAND FRKS AFB MOCLDY    58  58  99 N7        30.29R
GRAND FRKS NWS   N/A     57 N/A N/A VRB2        N/A
DEVILS LAKE    MOCLDY    61  52  72 E3        30.28R
FARGO          PTCLDY    58  55  90 CALM      30.27R
WAHPETON ARPT  MOSUNNY   59  54  82 NE6       30.27S
$$

 ***** WEATHER ACROSS CENTRAL AND WESTERN NORTH DAKOTA  *****

CITY           SKY/WX    TMP DP  RH WIND       PRES   REMARKS
BISMARCK       MOCLDY    65  61  87 SE5       30.26R
MINOT          CLOUDY    65  63  93 SE5       30.25S
JAMESTOWN      PTCLDY    59  56  89 SE3       30.27R
MINOT AFB      CLOUDY    64  64  99 E9        30.25S
GARRISON         N/A     66  65  96 NE5       30.25F
WILLISTON      CLEAR     64  60  87 SE3       30.22S
DICKINSON      PTCLDY    61  59  93 E8        30.23S
HETTINGER      CLEAR     62  58  86 E8        30.25S
$$

 *****  OTHER AIRPORT OBSERVATIONS IN OUR AREA  *****

CITY           SKY/WX    TMP DP  RH WIND       PRES   REMARKS
WALHALLA         N/A     55  55 100 N6          N/A
GRAFTON AIRPOR FAIR      55  55 100 N5        30.29S
VALLEY CITY AR FAIR      57  57 100 CALM      30.27S
CANDO          CLOUDY    59  55  88 E6        30.31R
CAVALIER APRT  FAIR      57  55  94 N7        30.29F
GWINNER        SUNNY     61  57  88 CALM      30.29R
ROLLA          CLOUDY    55  55 100 NE3       30.33R
 ***** THE ABOVE OBSERVATIONS ARE NON NWS ARE NOT QUALITY
       CONTROLLED AND MAY MIS-REPORT RAIN FOR SNOW...
$$

  *****  WEATHER ACROSS NORTHERN MINNESOTA  *****

CITY           SKY/WX    TMP DP  RH WIND       PRES   REMARKS
FLAG ISLAND    PTCLDY    61  54  77 CALM      30.26R
WARROAD        CLOUDY    54  50  87 NW5       30.28R
ROSEAU         CLEAR     54  48  82 CALM      30.28S
HALLOCK        CLEAR     55  54  94 N6        30.29R
THF RVR FALLS  CLEAR     57  54  88 N7        30.29R
BAUDETTE       MOCLDY    57  55  93 CALM      30.28R
WASKISH        CLEAR     55  54  94 N5        30.27R
CROOKSTON      CLEAR     57  55  94 NE5       30.28R
$$
  *****  WEATHER ACROSS CENTRAL AND WEST MINNESOTA  *****

CITY           SKY/WX    TMP DP  RH WIND       PRES   REMARKS
FOSSTON        CLEAR     54  50  87 CALM      30.28S
BEMIDJI        CLEAR     51  50  98 NW6       30.26F
PARK RAPIDS    PTCLDY    53  51  93 NW3       30.26R
ELBOW LAKE     FAIR      59  56  91 N3        30.28R
WADENA         PTCLDY    55  54  94 N3        30.26S
DETROIT LAKES  PTCLDY    59  55  88 NW5       30.30R
MOORHEAD       PTCLDY    59  59 100 CALM      30.27S
FERGUS FALLS   PTCLDY    59  54  82 CALM      30.28R
MORRIS MN      CLEAR     54  54 100 N3        30.27R FOG
STAPLES        PTCLDY    54  52  94 CALM      30.26S
$$
  *****  WEATHER ELSEWHERE ACROSS MINNESOTA  *****

CITY           SKY/WX    TMP DP  RH WIND       PRES   REMARKS
DULUTH         PTCLDY    59  52  77 N5        30.21R
INTRNTL FALLS  CLOUDY    57  55  93 NW3       30.25R
ELY            CLEAR     50  48  93 CALM      30.24R
CLOQUET        CLEAR     54  50  87 NW3       30.22R
WHEATON        CLEAR     57  54  88 CALM      30.29R
BRAINERD       CLEAR     53  51  93 CALM      30.25R
HIBBING        PTCLDY    54  51  90 NW5       30.23R
ALEXANDRIA     CLEAR     61  57  87 N5        30.27R
SAINT CLOUD    CLEAR     57  53  86 NW5       30.23R
MINNEAPOLIS    PTCLDY    64  57  78 CALM      30.21R
$$

  *****  WEATHER ACROSS SOUTH DAKOTA  *****

CITY           SKY/WX    TMP DP  RH WIND       PRES   REMARKS
SIOUX FALLS    PTCLDY    59  56  89 NE3       30.25R
BROOKINGS      NOT AVBL
WATERTOWN      CLEAR     55  53  93 CALM      30.28R
HURON          CLEAR     61  57  87 E3        30.25R
SISSETON         N/A     56  55  97 CALM      30.26R
ABERDEEN       CLEAR     59  57  93 CALM      30.27R
MITCHELL       PTCLDY    61  58  90 E3        30.25R
PIERRE         CLOUDY    67  60  78 E10       30.22F
MOBRIDGE       PTCLDY    63  59  87 E8        30.23R
RAPID CITY     CLOUDY    65  57  75 SW16      30.26S
$$

  *****  SOME WEATHER IN NEARBY STATES *****

CITY           SKY/WX    TMP DP  RH WIND       PRES   REMARKS
GLASGOW MT     PTCLDY    61  56  83 E7        30.18S
GREAT FALLS MT CLEAR     61  56  83 N3        30.13S
CHEYENNE WY    CLOUDY    64  60  87 S7        30.39S
SCOTTSBLUFF NE CLEAR     67  64  90 E12       30.29S
OMAHA NE       CLEAR     63  58  83 NW7       30.19R
DES MOINES IA  PTCLDY    69  59  70 N9        30.15S
DAVENPORT IA   CLEAR     67  63  87 N10       30.10R
CHICAGO IL     PTCLDY    66  52  60 N16G24    30.08R
EAU CLAIRE WI  CLEAR     58  57  97 CALM      30.19S
LA CROSSE WI   CLEAR     62  58  86 N3        30.17R
$$

  *****  SOME NATIONAL WEATHER *****

CITY           SKY/WX    TMP DP  RH WIND       PRES   REMARKS
LA GUARDIA NY  PTCLDY    74  62  66 SW12      29.97F
RALEIGH NC     FOG       72  70  94 CALM      30.06S VSB 1/2
ATLANTA GA     MOCLDY    73  69  87 CALM      30.09R
NEW ORLEANS LA MOCLDY    77  73  87 E3        30.02R
OKLAHOMA CITY  PTCLDY    74  71  91 S6        30.11S
ALBUQUERQUE NM CLEAR     71  55  56 NW5       30.35R
SALT LAKE CITY PTCLDY    74  38  27 SE9       30.09S
LOS ANGELES CA CLEAR     67  61  81 SE5       29.99F
BOISE ID       CLOUDY    72  52  49 SW8       30.08R
SEATTLE WA     CLOUDY    62  61  96 N5        30.00F
$$

*** WEATHER ACROSS MANITOBA...SASKATCHEWAN AND ONTARIO ***
                ***ONTARIO***

CITY           SKY/WX    TMP DP  RH WIND       PRES   REMARKS
GERALDTON      PTCLDY    48  48 100 CALM      30.17R
THUNDER BAY    MOCLDY    59  55  88 W2        30.19R
SIOUX LOOKOUT  PTCLDY    50  50 100 N3        30.25R
TORONTO        CLOUDY    73  70  88 W8        29.87R
BIG TROUT LK   CLEAR     55  48  76 W9        30.15S
PICKLE LAKE    NOT AVBL
DRYDEN         CLEAR     52  50  93 N5        30.25S
KENORA         MOCLDY    59  52  77 N5        30.28S
$$
                *** MANITOBA***

CITY           SKY/WX    TMP DP  RH WIND       PRES   REMARKS
BRANDON        PTCLDY    55  54  94 E3        30.32R
DAUPHIN        CLEAR     48  46  93 VRB2      30.32S
ISLAND LAKE    PTCLDY    59  50  72 NW8       30.25S
PILOT MOUND      N/A     54  52  94 E3          N/A
THE PAS        CLEAR     55  50  82 CALM      30.29S
THOMPSON       PTCLDY    43  43 100 W5        30.24S
WINNIPEG       PTCLDY    48  46  93 NW5       30.31S
LYNN LAKE      CLEAR     50  46  87 SW5       30.25S
CHURCHILL      CLOUDY    57  50  77 W8        30.02S
GILLAM         MOCLDY    59  52  77 W8        30.15S
$$
                ***SASKATCHEWAN***

CITY           SKY/WX    TMP DP  RH WIND       PRES   REMARKS
ESTEVAN        MOCLDY    63  59  88 E8        30.27S
KINDERSLEY     PTCLDY    61  57  88 SE10G17   30.16F
LLOYDMINSTER   CLOUDY    63  55  77 SE14G20   30.14F
PRINCE ALBERT  CLEAR     50  50 100 E5        30.26S
REGINA         PTCLDY    63  52  67 E14       30.27R
YORKTON        CLEAR     50  48  93 E3        30.31F
N. BATTLEFORD  CLOUDY    63  55  77 E12G17    30.21F
LA RONGE       PTCLDY    50  48  93 CALM      30.25S
SASKATOON      MOCLDY    59  54  82 SE9       30.25S
SWIFT CURRENT  CLEAR     61  57  88 SE10      30.19F
$$
NOTE: THESE ARE AUTOMATED STATIONS WITH LIMITED QUALITY CONTROL
      "FAIR" INDICATES FEW OR NO CLOUDS BELOW 12,000 FEET WITH NO
      SIGNIFICANT WEATHER AND/OR OBSTRUCTIONS TO VISIBILITY.
      SKY/WX - SKY CONDITION AND SIGNIFICANT WEATHER.
      TMP - AIR TEMPERATURE.    DP   - DEWPOINT TEMPERATURE.
      RH  - RELATIVE HUMIDITY.  PRES - PRESSURE.
      HX  - HEAT INDEX.         WCI  - WIND CHILL INDEX.
$


USA.gov is the U.S. government's official web portal to all federal, state and local government web resources and services.